TimeEDT,TemperatureF,Dew PointF,Humidity,Sea Level PressureIn,VisibilityMPH,Wind Direction,Wind SpeedMPH,Gust SpeedMPH,PrecipitationIn,Events,Conditions,WindDirDegrees,DateUTC
12:53 AM,59.0,52.0,78,29.93,10.0,NE,4.6,-,0.00,,Overcast,50,2012-10-03 04:53:00
1:53 AM,57.0,52.0,83,29.93,10.0,NE,4.6,-,0.01,Rain,Light Rain,40,2012-10-03 05:53:00
2:53 AM,57.0,53.1,87,29.93,10.0,East,3.5,-,N/A,,Mostly Cloudy,80,2012-10-03 06:53:00
3:53 AM,57.0,53.1,87,29.93,10.0,Calm,Calm,-,N/A,,Overcast,0,2012-10-03 07:53:00
4:48 AM,57.2,53.6,88,29.94,10.0,Calm,Calm,-,N/A,,Overcast,0,2012-10-03 08:48:00
4:53 AM,57.9,54.0,87,29.94,10.0,Calm,Calm,-,N/A,,Overcast,0,2012-10-03 08:53:00
5:53 AM,57.0,55.0,93,29.96,7.0,Calm,Calm,-,0.01,,Overcast,0,2012-10-03 09:53:00
6:30 AM,57.2,53.6,88,29.96,9.0,Calm,Calm,-,N/A,,Overcast,0,2012-10-03 10:30:00
6:50 AM,57.2,55.4,94,29.96,7.0,Calm,Calm,-,N/A,,Overcast,0,2012-10-03 10:50:00
6:53 AM,57.9,55.0,90,29.96,7.0,Calm,Calm,-,N/A,,Overcast,0,2012-10-03 10:53:00
7:10 AM,57.2,55.4,94,29.97,8.0,Calm,Calm,-,N/A,,Overcast,0,2012-10-03 11:10:00
7:53 AM,57.9,55.0,90,29.97,7.0,Calm,Calm,-,N/A,,Overcast,0,2012-10-03 11:53:00
8:35 AM,57.2,55.4,94,29.98,4.0,East,3.5,-,N/A,,Overcast,100,2012-10-03 12:35:00
8:53 AM,59.0,55.9,90,29.99,5.0,ESE,4.6,-,N/A,,Overcast,110,2012-10-03 12:53:00
9:40 AM,59.0,57.2,94,30.00,1.8,Calm,Calm,-,N/A,,Overcast,0,2012-10-03 13:40:00
9:53 AM,59.0,57.0,93,30.00,0.5,Calm,Calm,-,N/A,Fog,Fog,0,2012-10-03 13:53:00
10:28 AM,60.8,57.2,88,30.00,1.2,South,3.5,-,N/A,,Overcast,170,2012-10-03 14:28:00
10:53 AM,61.0,59.0,93,30.00,2.5,South,5.8,-,0.00,,Overcast,170,2012-10-03 14:53:00
11:12 AM,60.8,59.0,94,30.00,1.5,SW,3.5,-,N/A,,Overcast,220,2012-10-03 15:12:00
11:21 AM,60.8,59.0,94,30.00,1.5,SSW,4.6,-,0.00,Rain,Light Rain,210,2012-10-03 15:21:00
11:53 AM,62.1,59.0,90,29.99,1.5,SW,4.6,-,0.01,,Overcast,220,2012-10-03 15:53:00
12:00 PM,62.6,59.0,88,29.99,6.0,SSW,4.6,-,N/A,,Overcast,210,2012-10-03 16:00:00
12:18 PM,64.4,59.0,83,30.00,7.0,SSW,6.9,-,0.01,,Overcast,210,2012-10-03 16:18:00
12:53 PM,64.9,57.9,78,30.00,10.0,Variable,4.6,-,0.01,,Overcast,0,2012-10-03 16:53:00
1:00 PM,66.2,59.0,78,30.00,9.0,Variable,4.6,-,N/A,,Overcast,0,2012-10-03 17:00:00
1:53 PM,66.0,57.9,75,29.99,10.0,Calm,Calm,-,N/A,,Overcast,0,2012-10-03 17:53:00
2:38 PM,64.4,55.4,73,29.99,10.0,SSW,6.9,-,N/A,,Overcast,210,2012-10-03 18:38:00
2:53 PM,64.9,55.9,73,30.00,10.0,South,5.8,-,N/A,,Overcast,190,2012-10-03 18:53:00
3:53 PM,66.0,55.9,70,29.99,10.0,SSW,4.6,-,N/A,,Overcast,210,2012-10-03 19:53:00
4:19 PM,64.4,55.4,73,29.99,10.0,SSW,5.8,-,N/A,,Overcast,200,2012-10-03 20:19:00
4:53 PM,64.9,53.1,65,30.01,10.0,SSW,10.4,-,N/A,,Overcast,200,2012-10-03 20:53:00
5:53 PM,64.0,53.1,67,30.01,10.0,South,8.1,-,N/A,,Overcast,190,2012-10-03 21:53:00
6:53 PM,63.0,52.0,67,30.03,10.0,SSW,8.1,-,N/A,,Overcast,210,2012-10-03 22:53:00
7:53 PM,61.0,53.1,75,30.04,10.0,South,4.6,-,N/A,,Overcast,180,2012-10-03 23:53:00
8:53 PM,55.9,51.1,84,30.04,10.0,SSE,5.8,-,N/A,,Scattered Clouds,150,2012-10-04 00:53:00
9:53 PM,60.1,54.0,80,30.06,10.0,SSE,5.8,-,N/A,,Overcast,160,2012-10-04 01:53:00
10:53 PM,60.1,54.0,80,30.06,10.0,South,4.6,-,N/A,,Overcast,180,2012-10-04 02:53:00
11:53 PM,61.0,54.0,78,30.06,10.0,South,5.8,-,N/A,,Overcast,180,2012-10-04 03:53:00